Location: Chiroubles
(46.1812°N, 4.6660°E)
Time: 00:07:07
(UTC+00:00)

Courier 1B - Pass Details

Date: 01 August 2021
Orbit: 963 x 1209 km, 28.3° (Epoch: 24 September)

Event Time Altitude Azimuth Distance (km) Brightness Sun altitude
Rises 22:27:02 0° 249° (WSW) 4,057 10.7 -23.5°
Reaches altitude 10° 22:31:37 10° 225° (SW) 3,049 9.8 -23.8°
Enters shadow 22:31:48 10° 224° (SW) 3,020 9.8 -23.8°
